Voltar ao catálogo

BREEZE-M R/B

LostHEO
NORAD 35494·ROCKET BODY·🇷🇺 Russia

Lançado Jun 30, 2009 de Baikonur Cosmodrome

Loading…

Próximas Passagens (próximas 24 horas)

TLE

ObsoletoSource: Space-Track

Época: Jul 31, 2026, 05:54 UTC

1 35494U 09034B   26212.24634788  .00000140  00000-0  00000+0 0  9990
2 35494  23.2680 255.8088 6083978   6.6496 139.5211  2.04371999127552

Acompanhe BREEZE-M R/B em tempo real com AllMySat

Download on the App Store